Live-Position
3D-Globus wird geladen...
Über Starlink 5916
Group: 3 satellites
Beschreibung wird geladen...
Nächste Überflüge
Passes for default location (London). Set your location on the main map for personalized predictions.
Höhenverlauf
Loading altitude history...
No altitude history available
Zweizeiliger Elementsatz
1 55988U 23042C 26121.50002315 .02102343 00000-0 75252-1 0 9991
2 55988 43.0003 125.3911 0000930 297.5654 254.9343 15.24467410 5851
Epoch: 1. Mai 2026 •
Age: 5 hours
Aktueller Status
Höhe 493.0 km
Geschwindigkeit 7.62 km/s
Subsatellitenpunkt -14.61°S,
150.55°W
Startdatum 24. März 2023
Alter 3.1 years
Typ internet
Startgruppe
Falcon 9 •
Group 5-5 •
51 satellites
Starlink 5905
55986
Starlink 5915 55987
Starlink 5947 55989
Starlink 5946 55990
Starlink 5948 55991
Starlink 5969 55993
Starlink 5956 55994
Starlink 5903 55996
Starlink 5902 55998
Starlink 5901 55999
Starlink 5910 56000
Starlink 5944 56001
Starlink 5799 56002
Starlink 5789 56003
Starlink 5787 56004
Starlink 5801 56005
Starlink 5794 56006
Starlink 5806 56007
Starlink 5803 56008
Starlink 5964 56009
...and 30 more
Technische Details
Klassifizierung Payload
Masse 305.00 kg
Trockenmasse 290.00 kg
Gesamtmasse 305.00 kg
Länge 0.20 m
Durchmesser 2.80 m
Spannweite 9.00 m
Form Box + pan
Hersteller SPXS
Bus-Typ Starlink
Phasenstatus In Orbit
Besitzer/Staat SPXS/US
Most Searched
Loading...